Location: Amherst
(42.5000°N, 72.5000°W)
Time: 00:15:54
(UTC-04:00)

ISS - Pass Details

Date: 12 July 2018
Orbit: 402 x 408 km, 51.6° (Epoch: 21 July)

Event Time Altitude Azimuth Distance (km) Brightness Sun altitude
Exits shadow 02:59:13 15° 298° (WNW) 1,217 -1.5 -19.5°
Maximum altitude 03:01:07 23° 343° (NNW) 916 -1.6 -19.3°
Drops below altitude 10° 03:03:50 10° 39° (NE) 1,473 0.2 -19.1°
Sets 03:06:12 0° 54° (NE) 2,336 1.3 -18.9°
